Flag for Canada Weather past 2 weeks in Maple Ridge, British Columbia, Canada

Now
67 °F

Mild.


Feels Like: 67 °F
Forecast: 65 / 83 °F
Wind: 2 mph from Southeast

Location: P. Meadows Coastal Station

Current Time: Jun 30, 2015 at 8:13:06 AM

Latest Report: Jun 30, 2015 at 7:00 AM


Visibility: N/A

Pressure: 30.09 "Hg

Humidity: 69%

Dew point: 56 °F

Location of Maple RidgeLocation

Historic Weather in Maple Ridge — Graph

°F

Maple Ridge temperature yesterday

Maximum temperature yesterday: 88 °F (at 2:00 PM)
Minimum temperature yesterday: 66 °F (at 4:00 AM)
Average temperature yesterday: 77 °F

Past Weeks' High & Low Weather Summary

 TemperatureHumidityPressure
High91 °F (Jun 27, 5:00 PM)94% (Jun 21, 5:00 AM)30.16 "Hg (Jun 21, 5:00 AM)
Low50 °F (Jun 21, 4:00 AM)21% (Jun 15, 5:00 PM)29.85 "Hg (Jun 15, 7:00 PM)
Average68 °F59%30.02 "Hg
* Reported Jun 15 6:00 AM — Jun 30 6:00 AM, Maple Ridge, Weather by CustomWeather, © 2015

Note: Actual official high and low records may vary slightly from our data, if they occured in-between our weather recording intervals... More about our weather records

Advertising

Maple Ridge weather history for previous 24 hours

 ConditionsComfort  
Time TempWeatherWind HumidityBarometerVisibility
6:00 AM
Tue, Jun 30
62 °FCool.2 mph84%30.08 "HgN/A
5:00 AM62 °FCool.2 mph82%30.06 "HgN/A
4:00 AM64 °FMild.2 mph85%30.05 "HgN/A
3:00 AM65 °FMild.1 mph80%30.03 "HgN/A
2:00 AM65 °FMild.1 mph78%30.03 "HgN/A
1:00 AM68 °FMild.1 mph70%30.02 "HgN/A
12:00 AM69 °FMild.1 mph69%30.01 "HgN/A
11:00 PM
Mon, Jun 29
74 °FMild.3 mph56%29.99 "HgN/A
10:00 PM75 °FMild.3 mph60%29.98 "HgN/A
9:00 PM80 °FWarm.2 mph48%29.96 "HgN/A
8:00 PM84 °FWarm.5 mph41%29.94 "HgN/A
7:00 PM86 °FPleasantly warm.5 mph37%29.94 "HgN/A
6:00 PM87 °FPleasantly warm.3 mph37%29.94 "HgN/A
5:00 PM86 °FPleasantly warm.6 mph39%29.95 "HgN/A
4:00 PM87 °FPleasantly warm.6 mph38%29.95 "HgN/A
3:00 PM87 °FWarm.7 mph42%29.96 "HgN/A
2:00 PM88 °FHot.5 mph41%29.96 "HgN/A
1:00 PM85 °FWarm.3 mph47%29.96 "HgN/A
12:00 PM82 °FWarm.3 mph50%29.97 "HgN/A
11:00 AM78 °FWarm.3 mph54%29.97 "HgN/A
10:00 AM75 °FMild.2 mph59%29.98 "HgN/A
9:00 AM71 °FMild.2 mph68%29.97 "HgN/A
8:00 AM71 °FMild.No wind69%29.96 "HgN/A
Weather by CustomWeather, © 2015

See weather overviewHow to use our weather pages